{"data":{"norad_id":53595,"epoch":"2026-05-25T01:23:09.278592Z","epoch_age_seconds":66673,"freshness":"FRESH","line1":"1 53595U 22104H   26145.05774628  .00000506  00000+0  49860-4 0  9994","line2":"2 53595  53.2153 261.3011 0001299  91.8907 268.2234 15.08840616207473","mean_motion":15.08840616,"eccentricity":0.0001299,"inclination_deg":53.2153,"raan_deg":261.3011,"arg_perigee_deg":91.8907,"mean_anomaly_deg":268.2234,"bstar":4.986e-5,"rev_number":20747,"period_min":95.437515714383,"perigee_km":538.84287368124,"apogee_km":540.64013851712,"semimajor_km":6917.8785060992,"source":"CELESTRAK","updated_at":"2026-05-25T13:38:17.474899Z"}}